sat.trackr.live / text

‹ back to catalog

STARLINK-35104

NORAD 65631 · 2025-210K

PAYLOAD ACTIVE UNKNOWN

§ Identity

Operator
Country
US
Launch date
2025-09-18
Launch site
AFETR
Launch vehicle
Mass (kg)
RCS (m²)

Purposes: comms

External: N2YO · Heavens-Above · Gunter

§ Orbital elements

Epoch: 2026-09-20T07:28:42.123360Z

Period
93.85 min
Inclination
53.1573°
Eccentricity
0.0001049
Mean motion
15.34395691 rev/d
Perigee alt
462.0 km
Apogee alt
463.4 km
Semi-major
6,840.9 km
B*
3.0187e-4
RAAN
118.4679°
Arg perigee
89.5584°
Mean anomaly
270.5539°
Rev number
5,758

§ Raw data

STARLINK-351041 65631U 25210K   26263.31159865  .00009835  00000+0  30187-3 0  99942 65631  53.1573 118.4679 0001049  89.5584 270.5539 15.34395691 57588

JSON: /api/v1/satellites/65631 · /tle

For live sub-satellite position, see the globe view (requires WebGL).

§ Visibility from observer

Set your observer location to see the next 7 days of passes ≥ 10°. The values pass through the URL so the page stays shareable.

No JS? Fill the form by hand. The geolocation button needs JavaScript.